Regional Weather Roundup
Issued by NWS

Home | Current Version | Previous Version | Text Only | Print | Product List | Glossary On
Versions: 1 2 3 4 5 6 7 8 9 10 11 12 13 14 15 16 17 18 19 20 21 22 23 24 25 26 27 28 29 30 31 32 33 34 35 36 37 38 39 40 41 42 43 44 45 46 47 48 49 50
000
ASCA44 KEWX 031320
RWRMX

LATIN AMERICA AND CARIBBEAN REGIONAL WEATHER ROUNDUP
NATIONAL WEATHER SERVICE AUSTIN/SAN ANTONIO TX
800 AM CDT FRI JUL 03 2015

NOTE: "FAIR" INDICATED FEW OR NO CLOUDS BELOW 12,000 FEET WITH NO
SIGNIFICANT WEATHER AND/OR OBSTRUCTIONS TO VISIBILITY.

BAJA CALIFORNIA

CITY           SKY/WX    TMP DP  RH WIND       PRES   REMARKS
LORETO         MOCLDY    84  77  79 CALM      29.79  HX  94
TIJUANA        CLOUDY    66  61  82 CALM      29.99R FOG

NORTHWESTERN MEXICO

CITY           SKY/WX    TMP DP  RH WIND       PRES   REMARKS
DURANGO        MOCLDY    57  55  94 CALM      30.20R
CD. JUAREZ     CLOUDY    75  54  46 N12       30.00R
LOS MOCHIS     MOCLDY    79  66  65 E7        29.82
OBREGON        PTCLDY    77  72  83 N5        29.80

NORTHEASTERN MEXICO

CITY           SKY/WX    TMP DP  RH WIND       PRES   REMARKS
CHIHUAHUA      MOCLDY    72  54  53 NW7       30.06R
MATAMOROS      MOSUNNY   77  75  94 CALM      29.98  FOG
MONCLOVA       MOSUNNY   73  66  78 CALM      29.94
MONTERREY      PTSUNNY   70  68  94 CALM      29.94F
NUEVO LAREDO   SUNNY     77  72  83 CALM      29.92R
PIEDRAS NEGRAS MOSUNNY   73  68  83 CALM      29.96
REYNOSA        PTSUNNY   73  70  88 SE7       29.95S
SALTILLO       MOSUNNY   66  63  88 CALM      30.15R
TORREON        PTSUNNY   75  61  60 SE7       30.03S
CD. VICTORIA   SUNNY     73  72  94 SE8       29.96R

WESTERN MEXICO

CITY           SKY/WX    TMP DP  RH WIND       PRES   REMARKS
AGUASCALIENTES MOCLDY    55  54  94 CALM      30.24R
GUADALAJARA    CLOUDY    64  59  82 CALM      30.15
MANZANILLO     PTCLDY    77  72  83 NW12      29.80
MAZATLAN       TSTM      75  72  88 S12       29.82R
P. VALLARTA    MOCLDY    77  75  94 NE3       29.85R
ZACATECAS      PTCLDY    52  43  71 CALM      30.26R

CENTRAL MEXICO

CITY           SKY/WX    TMP DP  RH WIND       PRES   REMARKS
CUERNAVACA     PTSUNNY   63  63 100 CALM      30.11F
MEXICO CITY    CLOUDY    57  52  82 NW5       30.29R
POZA RICA      CLOUDY    77  73  88 NW7       29.95R FOG
PUEBLA         PTSUNNY   55  50  82 N3        30.30R
QUERETARO      CLOUDY    57  55  94 CALM      30.28R
S. LUIS POTOSI CLOUDY    57  57 100 CALM      30.23R
TAMPICO        MOSUNNY   73  72  94 CALM      29.95R
TOLUCA         PTSUNNY   50  48  93 CALM      30.34S HAZE

SOUTHERN MEXICO

CITY           SKY/WX    TMP DP  RH WIND       PRES   REMARKS
ACAPULCO       CLOUDY    81  75  83 W10       29.84R
B. DE HUATULCO PTSUNNY   77  66  69 CALM      29.86S HAZE
OAXACA         PTSUNNY   61  57  88 CALM      30.19R
P. ESCONDIDO   MOSUNNY   77  73  88 E9        29.89S
VERACRUZ       PTSUNNY   75  73  94 NW3       29.92R
ZIHUATANEJO    CLOUDY    75  73  94 W3        29.88R

YUCATAN PENINSULA

CITY           SKY/WX    TMP DP  RH WIND       PRES   REMARKS
CAMPECHE       MOSUNNY   79  77  94 E12       29.93R
CANCUN         PTSUNNY   82  79  89 NE6       30.01R HX  93
CHETUMAL       PTSUNNY   82  75  78 SE12      29.96R
CD. DEL CARMEN PTSUNNY   82  73  74 E12       29.92R
COZUMEL        PTSUNNY   77  77 100 CALM      30.00R
MERIDA         CLOUDY    79  77  94 E10       29.99R
MINATITLAN     CLOUDY    79  68  69 N8        29.85R
TAPACHULA      SUNNY     79  75  89 CALM      29.83R
TUX. GUTIERREZ PTSUNNY   72  68  88 SW3       29.95R
VILLAHERMOSA   MOSUNNY   77  73  88 SE6       29.92R

CENTRAL AMERICA

CITY           SKY/WX    TMP DP  RH WIND       PRES   REMARKS
BELIZE CITY    MOSUNNY   84  77  79 E7        29.95R HX  94
MANAGUA        MOSUNNY   82  73  74 E7        29.80S

CARIBBEAN

CITY           SKY/WX    TMP DP  RH WIND       PRES   REMARKS
ARUBA          MOSUNNY   84  77  79 E23       29.92S HX  94
CURACAO        MOSUNNY   86  75  70 E15       29.97R HX  95
KINGSTON       MOSUNNY   82  72  69 N6        29.97R
SAN JUAN       MOSUNNY   84  75  74 E13       30.09S HX  92
SANTO DOMINGO  PTSUNNY   82  72  69 NE9       30.06S
ST. CROIX      MOSUNNY   88  72  58 E18G28    30.07  HX  94
ST. KITTS      PTSUNNY   84  75  74 NE18      30.06S HX  92
ST. MAARTEN    MOSUNNY   84  72  65 E20       30.06S
ST. THOMAS     CLOUDY    88  68  51 E17       30.08  HX  91

$$




USA.gov is the U.S. government's official web portal to all federal, state and local government web resources and services.